TimeAST,TemperatureF,Dew PointF,Humidity,Sea Level PressureIn,VisibilityMPH,Wind Direction,Wind SpeedMPH,Gust SpeedMPH,PrecipitationIn,Events,Conditions,WindDirDegrees,DateUTC
12:56 AM,82.0,75.0,79,29.99,10.0,SSE,3.5,-,N/A,,Scattered Clouds,150,2013-09-16 04:56:00
1:56 AM,82.0,75.0,79,29.98,10.0,Calm,Calm,-,N/A,,Scattered Clouds,0,2013-09-16 05:56:00
2:56 AM,81.0,75.0,82,29.96,10.0,Calm,Calm,-,N/A,,Scattered Clouds,0,2013-09-16 06:56:00
3:56 AM,80.1,75.0,85,29.96,10.0,Calm,Calm,-,N/A,,Scattered Clouds,0,2013-09-16 07:56:00
4:56 AM,80.1,75.0,85,29.96,10.0,Calm,Calm,-,N/A,,Partly Cloudy,0,2013-09-16 08:56:00
5:56 AM,80.1,75.0,85,29.97,10.0,Calm,Calm,-,N/A,,Scattered Clouds,0,2013-09-16 09:56:00
6:56 AM,80.1,75.0,85,29.98,10.0,Calm,Calm,-,N/A,,Scattered Clouds,0,2013-09-16 10:56:00
7:56 AM,82.9,75.9,79,29.99,10.0,ESE,4.6,-,N/A,,Scattered Clouds,110,2013-09-16 11:56:00
8:56 AM,84.9,77.0,77,30.01,10.0,East,8.1,-,N/A,,Scattered Clouds,80,2013-09-16 12:56:00
9:56 AM,86.0,77.0,74,30.01,10.0,ENE,9.2,-,N/A,,Scattered Clouds,70,2013-09-16 13:56:00
10:56 AM,89.1,77.0,67,30.01,10.0,East,13.8,-,N/A,,Scattered Clouds,80,2013-09-16 14:56:00
11:56 AM,90.0,75.0,61,29.99,10.0,East,15.0,-,N/A,,Scattered Clouds,80,2013-09-16 15:56:00
12:56 PM,87.1,73.0,63,29.98,10.0,SSE,5.8,-,N/A,,Scattered Clouds,160,2013-09-16 16:56:00
1:56 PM,89.1,75.0,63,29.93,10.0,ESE,9.2,21.9,N/A,,Scattered Clouds,110,2013-09-16 17:56:00
2:56 PM,88.0,75.9,67,29.91,10.0,East,13.8,-,N/A,,Scattered Clouds,80,2013-09-16 18:56:00
3:56 PM,87.1,75.0,67,29.91,10.0,ENE,16.1,-,N/A,,Mostly Cloudy,60,2013-09-16 19:56:00
4:56 PM,86.0,75.9,72,29.90,10.0,ENE,15.0,-,N/A,,Mostly Cloudy,70,2013-09-16 20:56:00
5:56 PM,84.9,75.9,74,29.91,10.0,East,12.7,-,N/A,,Mostly Cloudy,80,2013-09-16 21:56:00
6:56 PM,84.0,75.9,76,29.93,10.0,East,8.1,-,N/A,,Scattered Clouds,80,2013-09-16 22:56:00
7:56 PM,82.9,77.0,82,29.94,10.0,East,6.9,-,N/A,,Scattered Clouds,80,2013-09-16 23:56:00
8:56 PM,82.9,75.9,79,29.97,10.0,ESE,5.8,-,N/A,,Scattered Clouds,110,2013-09-17 00:56:00
9:56 PM,82.9,77.0,82,29.97,10.0,East,6.9,-,N/A,,Partly Cloudy,80,2013-09-17 01:56:00
10:56 PM,82.0,75.9,82,29.97,10.0,ESE,4.6,-,0.01,,Scattered Clouds,110,2013-09-17 02:56:00
11:56 PM,82.0,75.9,82,29.96,10.0,Calm,Calm,-,N/A,,Partly Cloudy,0,2013-09-17 03:56:00